Regional Weather Roundup
Issued by NWS Charleston, SC

Current Version | Previous Version | Text Only | Print | Product List | Glossary Off
Versions: 1 2 3 4 5 6 7 8 9 10 11 12 13 14 15 16 17 18 19 20 21 22 23 24 25 26 27 28 29 30 31 32 33 34 35 36 37 38 39 40 41 42 43 44 45 46 47 48 49 50

000
ASUS42 KCHS 271513
RWRCHS

REGIONAL WEATHER ROUNDUP
NATIONAL WEATHER SERVICE CHARLESTON SC
1100 AM EDT FRI MAY 27 2016

NOTE: "FAIR" INDICATES FEW OR NO CLOUDS BELOW 12,000 FEET WITH NO
SIGNIFICANT WEATHER AND/OR OBSTRUCTIONS TO VISIBILITY.

NOT ALL STATIONS ARE QUALITY CONTROLLED. USE DATA WITH CAUTION...
ESPECIALLY DEWPOINT OBSERVATIONS.

SCZ027-030-031-034>040-042>050-271600-
...SOUTHEAST SOUTH CAROLINA...

CITY           SKY/WX    TMP DP  RH WIND       PRES   REMARKS
N CHARLESTON   MOSUNNY   82  58  43 E8        30.14S
WATERFRONT PRK   N/A     80  63  55 E9        30.12S
MOUNT PLEASANT FAIR      81  63  54 E6        30.15R
JOHNS ISLAND   FAIR      81  63  54 NE12      30.15R
PINOPOLIS        N/A     82  61  47 VRB2      30.06F
MONCKS CORNER  FAIR      77  54  44 S7        30.14S
SUMMERVILLE    FAIR      81  61  50 E7        30.15S
BEAUFORT MCAS  SUNNY     80  61  52 SE7       30.14R
BEAUFORT ARPT  FAIR      81  55  41 E8        30.13S
HILTON HEAD IS SUNNY     82  61  47 NE8       30.15S
WALTERBORO     SUNNY     81  57  44 E7        30.15S
ALLENDALE      FAIR      79  61  53 SE6       30.15R

...SOUTHERN MIDLANDS AND PEE DEE...

CITY           SKY/WX    TMP DP  RH WIND       PRES   REMARKS
GEORGETOWN     FAIR      79  55  44 SE12      30.16S
KINGSTREE      FAIR      79  59  50 E3        30.15S
ORANGEBURG     SUNNY     79  62  56 CALM      30.15S
BARNWELL       FAIR      82  64  54 E3        30.16R
AIKEN          PTSUNNY   77  59  53 CALM      30.19S
MANNING        FAIR      79  61  53 CALM      30.15S
COLUMBIA       MOSUNNY   80  61  52 VRB5      30.15S
SUMTER         SUNNY     79  62  57 S3        30.13F
FLORENCE       MOSUNNY   80  63  55 CALM      30.16S
MYRTLE BEACH   MOSUNNY   81  59  47 SE7       30.18S
N MYRTLE BEACH SUNNY     78  62  57 SE8       30.16F

$$

GAZ063-065-086>088-099>101-113>116-118-119-134>141-150-271600-
...SOUTHEAST GEORGIA...

CITY           SKY/WX    TMP DP  RH WIND       PRES   REMARKS
SAVANNAH ARPT  MOSUNNY   82  58  43 SE12      30.14R
HUNTER AAF     SUNNY     81  63  54 E10       30.11R
FORT STEWART   SUNNY     81  61  50 E5        30.11R
STATESBORO     SUNNY     80  61  51 SE5       30.14S
SYLVANIA       SUNNY     82  61  49 SE6       30.16R
CLAXTON        FAIR      80  59  49 CALM      30.13F

...CSRA...CENTRAL AND FAR SOUTHEAST GEORGIA...

CITY           SKY/WX    TMP DP  RH WIND       PRES   REMARKS
THOMSON        MOSUNNY   78  66  65 CALM      30.19F
AUGUSTA-BUSH   PTSUNNY   77  61  57 SE3       30.14F
AUGUSTA-DANIEL SUNNY     80  59  48 VRB3      30.16S
SWAINSBORO     FAIR      79  57  47 S7        30.15S
VIDALIA        SUNNY     79  59  50 E7        30.14F
EASTMAN        FAIR      80  60  51 E6        30.15F
HAZLEHURST     FAIR      81  55  41 E7        30.12S
ALMA           SUNNY     80  58  46 SE8       30.12S
WAYCROSS       SUNNY     80  59  48 E12       30.12S
JESUP          FAIR      77  59  53 SE6       30.13R
BAXLEY         FAIR      82  59  44 SE8       30.12F
BRUNSWICK      MOSUNNY   82  64  54 NE9       30.13R
SAINT SIMONS   PTSUNNY   80  65  59 NE10      30.12R

$$

SCZ027-028-034-036>038-045-046-048>050-GAZ119-141-271600-
...LAKE AND SUPPLEMENTAL COASTAL OBSERVATIONS...

STATION/POSITION TIME  TEMP    WIND        PRES    WAVE   SWELL
                       AIR SEA DIR/SP/G            HT/PER HT/PER/DIR
                 (UTC) (F)     (DEG/KT/KT) (MB)    (FT/S) (FT/S/D)
WINYAH BAY       NOT AVBL
LAKE MURRAY      1400   72      CALM  /  4 1020.7S
ACE BASIN NERRS  NOT AVBL
FORT PULASKI     1400   76 76   70/ 10/ 11 1020.7R
SAPELO ISLAND    1400   78      60/  9     1020.0R

$$

ANZ835-935-AMZ111-154-330-350-352-354-370-450-454-472-271600-
...C-MAN AND BUOY OBSERVATIONS...

STATION/POSITION TIME  TEMP    WIND        PRES    WAVE   SWELL
                       AIR SEA DIR/SP/G            HT/PER HT/PER/DIR
                 (UTC) (F)     (DEG/KT/KT) (MB)    (FT/S) (FT/S/D)
BUOY 41004       1450   77 77   60/ 12/ 14 1020.1F   3/ 8   2/ 8
BUOY 41008       1450   77 76   90/ 12/ 14 1019.7R   3/ 6   2/130/ 6
FOLLY BEACH CMAN 1500   77      70/ 11/ 13 1021.0R
CAPERS NEARSHORE 1408   76 76   90/  8/ 12 1020.6R
FRIPP NEARSHORE  1408   76 76   90/ 12/ 16 1019.8S


STATION/POSITION TIME  TEMP    WIND        PRES    WAVE   SWELL
                       AIR SEA DIR/SP/G            HT/PER HT/PER/DIR
                 (UTC) (F)     (DEG/KT/KT) (MB)    (FT/S) (FT/S/D)
5E ST. MARYS GA  1501      77                N/A     3/ 5
FRYING PAN BUOY  1400   76 76   60/ 10/ 12 1021.1F
BUOY 41025       1450   77 82  120/  6/  6 1022.3S   2/ 7   2/130/ 7
CAPE LOOKOUT NC  1500   75     110/  4/  4 1021.7F
BUOY 41002       1450   72 78   60/ 14/ 19 1019.7S   4/ 7   2/110/ 7
BUOY 41010       1420   77 78   40/ 12/ 16 1017.9R
ST AUGUSTINE FL  1500   77 79   70/  7/  8 1019.9R


$$




USA.gov is the U.S. government's official web portal to all federal, state and local government web resources and services.